Weather History for KVUO - February, 2013

Change the Weather History Date:

Sunday, February 10, 2013

  Actual Average Record
Temperature  
Mean Temperature 41 °F 43 °F  
Max Temperature 49 °F 51 °F 67 °F (1963)
Min Temperature 33 °F 35 °F 11 °F (1929)
Degree Days  
Heating Degree Days 24    
Month to date heating degree days 227  
Since 1 July heating degree days 2650  
Cooling Degree Days 0    
Month to date cooling degree days 0  
Year to date cooling degree days 0  
Moisture  
Dew Point 36 °F    
Average Humidity 80    
Maximum Humidity 100    
Minimum Humidity 60    
Precipitation  
Precipitation 0.00 in 0.15 in 1.84 in (1961)
Month to date precipitation 0.16 1.71  
Year to date precipitation 3.56 7.21  
Snow  
Snow 0.00 in - - ()
Month to date snowfall 0.0  
Snow Depth 0.00 in    
Sea Level Pressure  
Sea Level Pressure 30.33 in    
Wind  
Wind Speed 3 mph (WNW)    
Max Wind Speed 9 mph    
Max Gust Speed 12 mph    
Visibility 6 miles    
Events Fog    
T = Trace of Precipitation, MM = Missing Value Source: NWS Daily Summary

Daily Weather History Graph

Daily Weather History Graph

Search for Another Location

Airport or City:

Trip Planner

Search our weather history database for the weather conditions in past years. The results will help you decide how hot, cold, wet, or windy it might be!

Date:

Astronomy

Feb. 10, 2013 Rise Set
Actual Time 7:19 AM PST 5:30 PM PST
Civil Twilight 6:48 AM PST 6:01 PM PST
Nautical Twilight 6:13 AM PST 6:36 PM PST
Astronomical Twilight 5:39 AM PST 7:11 PM PST
Moon 7:08 AM PST (2/10) 6:33 PM PST (2/10)
Length of Visible Light 11h 13m
Length of Day
10h 11m
New Moon, 0% of the Moon is Illuminated
Feb 10
New Moon
Feb 17
First Quarter
Feb 25
Full
Mar 4
Last Quarter
Mar 11
New

Hourly Weather History & Observations

Time (PST) Temp. Windchill Dew Point Humidity Pressure Visibility Wind Dir Wind Speed Gust Speed Precip Events Conditions
12:53 AM 43.0 °F - 39.9 °F 89% 30.31 in 8.0 mi Calm Calm - N/A   Overcast
1:03 AM 42.8 °F - 39.2 °F 87% 30.31 in 8.0 mi Calm Calm - N/A   Overcast
1:35 AM 42.8 °F - 39.2 °F 87% 30.31 in 8.0 mi Calm Calm - N/A   Overcast
1:44 AM 42.8 °F - 39.2 °F 87% 30.32 in 8.0 mi Calm Calm - N/A   Overcast
1:53 AM 43.0 °F - 39.9 °F 89% 30.32 in 7.0 mi Calm Calm - N/A   Overcast
2:53 AM 39.9 °F - 37.9 °F 93% 30.32 in 3.0 mi Calm Calm - N/A   Mostly Cloudy
3:04 AM 37.4 °F - 35.6 °F 93% 30.32 in 1.8 mi Calm Calm - N/A   Mostly Cloudy
3:12 AM 39.2 °F - 35.6 °F 87% 30.32 in 1.2 mi Calm Calm - N/A   Mostly Cloudy
3:15 AM 39.2 °F - 37.4 °F 93% 30.32 in 2.0 mi Calm Calm - N/A   Mostly Cloudy
3:21 AM 37.4 °F - 37.4 °F 100% 30.32 in 2.0 mi Calm Calm - N/A   Scattered Clouds
3:35 AM 35.6 °F - 33.8 °F 93% 30.32 in 1.0 mi Calm Calm - N/A   Mist
3:41 AM 35.6 °F - 33.8 °F 93% 30.32 in 0.2 mi Calm Calm - N/A Fog Fog
3:48 AM 35.6 °F - 33.8 °F 93% 30.32 in 0.5 mi Calm Calm - N/A Fog Fog
3:53 AM 36.0 °F - 35.1 °F 97% 30.32 in 0.8 mi Calm Calm - N/A   Mist
3:56 AM 37.4 °F - 35.6 °F 93% 30.32 in 1.2 mi Calm Calm - N/A   Partly Cloudy
4:01 AM 37.4 °F - 35.6 °F 93% 30.32 in 2.0 mi Calm Calm - N/A   Scattered Clouds
4:03 AM 35.6 °F - 33.8 °F 93% 30.32 in 1.5 mi Calm Calm - N/A   Mostly Cloudy
4:06 AM 33.8 °F - 32.0 °F 93% 30.32 in 0.8 mi Calm Calm - N/A   Mostly Cloudy
4:14 AM 33.8 °F - 32.0 °F 93% 30.33 in 0.5 mi Calm Calm - N/A Fog Fog
4:25 AM 35.6 °F - 33.8 °F 93% 30.32 in 1.0 mi Calm Calm - N/A   Overcast
4:35 AM 35.6 °F - 35.6 °F 100% 30.32 in 2.5 mi Calm Calm - N/A   Overcast
4:41 AM 35.6 °F - 33.8 °F 93% 30.32 in 3.0 mi Calm Calm - N/A   Overcast
4:45 AM 35.6 °F - 33.8 °F 93% 30.32 in 1.8 mi Calm Calm - N/A   Overcast
4:53 AM 36.0 °F - 35.1 °F 97% 30.33 in 1.0 mi Calm Calm - N/A   Overcast
4:59 AM 37.4 °F - 35.6 °F 93% 30.33 in 2.0 mi Calm Calm - N/A   Overcast
5:07 AM 37.4 °F - 37.4 °F 100% 30.33 in 4.0 mi Calm Calm - N/A   Overcast
5:40 AM 41.0 °F 39.0 °F 37.4 °F 87% 30.33 in 6.0 mi NNW 3.5 mph - N/A   Overcast
5:53 AM 41.0 °F - 39.0 °F 93% 30.33 in 6.0 mi Calm Calm - N/A   Overcast
6:53 AM 39.9 °F 35.8 °F 37.9 °F 93% 30.34 in 5.0 mi WNW 5.8 mph - N/A   Mostly Cloudy
7:09 AM 39.2 °F - 37.4 °F 93% 30.34 in 4.0 mi Calm Calm - N/A   Scattered Clouds
7:30 AM 39.2 °F - 37.4 °F 93% 30.34 in 2.5 mi Calm Calm - N/A   Clear
7:53 AM 37.0 °F - 35.1 °F 93% 30.35 in 1.8 mi Calm Calm - N/A   Clear
8:08 AM 39.2 °F - 35.6 °F 87% 30.35 in 3.0 mi Calm Calm - N/A   Partly Cloudy
8:37 AM 37.4 °F - 35.6 °F 93% 30.36 in 3.0 mi Calm Calm - N/A   Mostly Cloudy
8:53 AM 39.9 °F - 37.0 °F 89% 30.36 in 6.0 mi Calm Calm - N/A   Overcast
9:53 AM 42.1 °F 40.2 °F 36.0 °F 79% 30.36 in 10.0 mi Variable 3.5 mph - N/A   Overcast
10:53 AM 44.1 °F 40.8 °F 37.0 °F 76% 30.37 in 10.0 mi WNW 5.8 mph - N/A   Overcast
11:53 AM 44.1 °F 40.8 °F 36.0 °F 73% 30.35 in 10.0 mi WSW 5.8 mph - N/A   Overcast
12:00 PM 44.6 °F 42.2 °F 35.6 °F 71% 30.35 in 10.0 mi SW 4.6 mph - N/A   Overcast
12:49 PM 48.2 °F - 35.6 °F 62% 30.34 in 10.0 mi NNW 4.6 mph - N/A   Overcast
12:53 PM 48.0 °F - 36.0 °F 63% 30.34 in 10.0 mi Calm Calm - N/A   Mostly Cloudy
1:03 PM 48.2 °F - 37.4 °F 66% 30.33 in 10.0 mi NW 3.5 mph - N/A   Overcast
1:11 PM 46.4 °F 45.2 °F 35.6 °F 66% 30.33 in 10.0 mi Variable 3.5 mph - N/A   Overcast
1:53 PM 46.9 °F - 34.0 °F 61% 30.33 in 10.0 mi WNW 3.5 mph - N/A   Overcast
2:53 PM 46.0 °F 44.8 °F 35.1 °F 66% 30.33 in 10.0 mi NNW 3.5 mph - N/A   Overcast
3:53 PM 46.0 °F 43.1 °F 34.0 °F 63% 30.33 in 10.0 mi NW 5.8 mph - N/A   Overcast
4:53 PM 45.0 °F 41.8 °F 34.0 °F 65% 30.34 in 10.0 mi NW 5.8 mph - N/A   Overcast
5:53 PM 45.0 °F 43.5 °F 34.0 °F 65% 30.34 in 10.0 mi WNW 3.5 mph - N/A   Overcast
6:53 PM 44.1 °F 42.5 °F 35.1 °F 71% 30.34 in 10.0 mi WNW 3.5 mph - N/A   Overcast
7:53 PM 44.1 °F 41.5 °F 34.0 °F 68% 30.34 in 10.0 mi West 4.6 mph - N/A   Overcast
8:53 PM 44.1 °F 41.5 °F 35.1 °F 71% 30.34 in 10.0 mi West 4.6 mph - N/A   Overcast
9:53 PM 44.1 °F 41.5 °F 35.1 °F 71% 30.34 in 10.0 mi NW 4.6 mph - N/A   Overcast
10:14 PM 44.6 °F - 35.6 °F 71% 30.33 in 10.0 mi Calm Calm - N/A   Overcast
10:53 PM 43.0 °F - 35.1 °F 74% 30.33 in 10.0 mi Calm Calm - N/A   Overcast
11:40 PM 42.8 °F 40.1 °F 35.6 °F 76% 30.33 in 10.0 mi WNW 4.6 mph - N/A   Overcast
11:53 PM 43.0 °F 41.3 °F 35.1 °F 74% 30.33 in 10.0 mi West 3.5 mph - N/A   Overcast